• In Portugal
  • List of Countries
  • For 7 days
  • Water Temperature
  • Satellite Maps
  • Weather Map
  • Weather Widgets
  • user-avatar
    Login

    Hourly Weather Jalapa

    Today, 11 December, Monday

    Time Temperature Precipitation Wind Pressure Humidity
    00:00 +8°C° 0 mm 3 mps 644 mmHg 87%
    01:00 +8°C° 0 mm 3 mps 644 mmHg 87%
    02:00 +8°C° 0 mm 3 mps 644 mmHg 86%
    03:00 +8°C° 0 mm 3 mps 643 mmHg 86%
    04:00 +8°C° 0 mm 3 mps 643 mmHg 87%
    05:00 +8°C° 0 mm 3 mps 643 mmHg 87%
    06:00 +8°C° 0 mm 3 mps 643 mmHg 88%
    07:00 +10°C° 0 mm 3 mps 644 mmHg 81%
    08:00 +11°C° 0 mm 3 mps 645 mmHg 74%
    09:00 +13°C° 0 mm 3 mps 646 mmHg 66%
    10:00 +16°C° 0 mm 3 mps 646 mmHg 60%
    11:00 +18°C° 0 mm 3 mps 646 mmHg 53%
    12:00 +19°C° 0 mm 3 mps 646 mmHg 46%
    13:00 +19°C° 0 mm 3 mps 646 mmHg 47%
    14:00 +20°C° 0 mm 3 mps 645 mmHg 47%
    15:00 +20°C° 0 mm 3 mps 644 mmHg 47%
    16:00 +18°C° 0 mm 3 mps 644 mmHg 56%
    17:00 +14°C° 0 mm 3 mps 643 mmHg 65%
    18:00 +12°C° 0 mm 3 mps 643 mmHg 74%
    19:00 +12°C° 0 mm 3 mps 643 mmHg 79%
    20:00 +11°C° 0 mm 3 mps 643 mmHg 83%
    21:00 +10°C° 0 mm 3 mps 644 mmHg 87%
    22:00 +10°C° 0 mm 3 mps 644 mmHg 88%
    23:00 +10°C° 0 mm 3 mps 643 mmHg 88%

    Tomorrow, 12 December, Tuesday

    Time Temperature Precipitation Wind Pressure Humidity
    00:00 +10°C° 0 mm 2 mps 643 mmHg 89%
    01:00 +9°C° 0 mm 2 mps 643 mmHg 89%
    02:00 +9°C° 0 mm 2 mps 642 mmHg 88%
    03:00 +9°C° 0 mm 2 mps 642 mmHg 88%
    04:00 +9°C° 0 mm 2 mps 642 mmHg 88%
    05:00 +8°C° 0 mm 2 mps 642 mmHg 87%
    06:00 +8°C° 0 mm 2 mps 642 mmHg 87%
    07:00 +10°C° 0 mm 2 mps 643 mmHg 79%
    08:00 +13°C° 0 mm 2 mps 644 mmHg 72%
    09:00 +15°C° 0 mm 2 mps 645 mmHg 64%
    10:00 +17°C° 0 mm 3 mps 645 mmHg 59%
    11:00 +19°C° 0 mm 3 mps 645 mmHg 54%
    12:00 +20°C° 0 mm 3 mps 646 mmHg 49%
    13:00 +21°C° 0 mm 3 mps 645 mmHg 49%
    14:00 +21°C° 0 mm 3 mps 645 mmHg 49%
    15:00 +21°C° 0 mm 3 mps 644 mmHg 49%
    16:00 +19°C° 0 mm 3 mps 644 mmHg 58%
    17:00 +17°C° 0 mm 3 mps 643 mmHg 67%
    18:00 +14°C° 0 mm 2 mps 643 mmHg 76%
    19:00 +14°C° 0 mm 2 mps 643 mmHg 80%
    20:00 +13°C° 0 mm 2 mps 643 mmHg 84%
    21:00 +12°C° 0 mm 2 mps 644 mmHg 88%
    22:00 +12°C° 0 mm 2 mps 644 mmHg 89%
    23:00 +12°C° 0 mm 2 mps 643 mmHg 89%

    Day after tomorrow, 13 December, Wednesday

    Time Temperature Precipitation Wind Pressure Humidity
    00:00 +12°C° 0 mm 2 mps 643 mmHg 90%
    01:00 +12°C° 0 mm 2 mps 643 mmHg 90%
    02:00 +12°C° 0 mm 2 mps 642 mmHg 90%
    03:00 +12°C° 0 mm 2 mps 642 mmHg 89%
    04:00 +10°C° 0 mm 2 mps 642 mmHg 90%
    05:00 +10°C° 0 mm 2 mps 642 mmHg 90%
    06:00 +10°C° 0 mm 2 mps 642 mmHg 90%
    07:00 +13°C° 0 mm 2 mps 643 mmHg 84%
    08:00 +13°C° 0 mm 3 mps 644 mmHg 77%
    09:00 +16°C° 0 mm 3 mps 645 mmHg 70%
    10:00 +17°C° 0 mm 3 mps 645 mmHg 64%
    11:00 +19°C° 0 mm 3 mps 645 mmHg 58%
    12:00 +20°C° 0 mm 3 mps 645 mmHg 52%
    13:00 +20°C° 0 mm 3 mps 645 mmHg 52%
    14:00 +20°C° 0 mm 3 mps 644 mmHg 52%
    15:00 +21°C° 0 mm 3 mps 644 mmHg 52%
    16:00 +19°C° 0 mm 2 mps 643 mmHg 60%
    17:00 +16°C° 0 mm 2 mps 643 mmHg 69%
    18:00 +14°C° 0 mm 2 mps 642 mmHg 77%
    19:00 +14°C° 0 mm 2 mps 643 mmHg 81%
    20:00 +13°C° 0 mm 2 mps 643 mmHg 85%
    21:00 +12°C° 0 mm 2 mps 643 mmHg 89%
    22:00 +12°C° 0 mm 2 mps 643 mmHg 90%
    23:00 +12°C° 0 mm 2 mps 643 mmHg 90%

    14 December, Thursday

    Time Temperature Precipitation Wind Pressure Humidity
    00:00 +12°C° 0 mm 2 mps 642 mmHg 91%
    01:00 +12°C° 0 mm 2 mps 642 mmHg 92%
    02:00 +10°C° 0 mm 2 mps 642 mmHg 92%
    03:00 +10°C° 0 mm 2 mps 641 mmHg 93%
    04:00 +10°C° 0 mm 2 mps 641 mmHg 93%
    05:00 +11°C° 0 mm 1 mps 641 mmHg 93%
    06:00 +10°C° 0 mm 1 mps 641 mmHg 93%
    07:00 +13°C° 0 mm 1 mps 642 mmHg 82%
    08:00 +16°C° 0 mm 1 mps 643 mmHg 72%
    09:00 +19°C° 0 mm 1 mps 644 mmHg 61%
    10:00 +21°C° 0 mm 1 mps 645 mmHg 54%
    11:00 +24°C° 0 mm 1 mps 645 mmHg 46%
    12:00 +26°C° 0 mm 1 mps 645 mmHg 39%
    13:00 +26°C° 0 mm 1 mps 644 mmHg 40%
    14:00 +26°C° 0 mm 1 mps 643 mmHg 40%
    15:00 +26°C° 0 mm 2 mps 643 mmHg 40%
    16:00 +23°C° 0 mm 1 mps 642 mmHg 51%
    17:00 +20°C° 0 mm 1 mps 642 mmHg 63%
    18:00 +18°C° 0 mm 1 mps 641 mmHg 74%
    19:00 +16°C° 0 mm 1 mps 642 mmHg 79%
    20:00 +15°C° 0 mm 1 mps 642 mmHg 84%
    21:00 +14°C° 0 mm 1 mps 642 mmHg 89%
    22:00 +14°C° 0 mm 1 mps 642 mmHg 90%
    23:00 +14°C° 0 mm 1 mps 642 mmHg 91%

    15 December, Friday

    Time Temperature Precipitation Wind Pressure Humidity
    00:00 +14°C° 0 mm 1 mps 642 mmHg 92%
    01:00 +13°C° 0 mm 1 mps 641 mmHg 92%
    02:00 +13°C° 0 mm 1 mps 641 mmHg 92%
    03:00 +13°C° 0 mm 1 mps 641 mmHg 92%
    04:00 +13°C° 0 mm 1 mps 641 mmHg 92%
    05:00 +13°C° 0 mm 1 mps 642 mmHg 92%
    06:00 +13°C° 0 mm 1 mps 642 mmHg 93%
    07:00 +15°C° 0 mm 2 mps 643 mmHg 85%
    08:00 +17°C° 0 mm 2 mps 644 mmHg 77%
    09:00 +19°C° 0 mm 2 mps 645 mmHg 69%
    10:00 +21°C° 0 mm 2 mps 645 mmHg 62%
    11:00 +22°C° 0 mm 3 mps 645 mmHg 55%
    12:00 +25°C° 0 mm 3 mps 645 mmHg 48%
    13:00 +25°C° 0 mm 3 mps 645 mmHg 50%
    14:00 +24°C° 0 mm 3 mps 644 mmHg 51%
    15:00 +24°C° 0 mm 3 mps 644 mmHg 53%
    16:00 +21°C° 0 mm 3 mps 644 mmHg 62%
    17:00 +19°C° 0 mm 3 mps 643 mmHg 70%
    18:00 +17°C° 0 mm 3 mps 643 mmHg 79%
    19:00 +17°C° 0.1 mm 3 mps 644 mmHg 83%
    20:00 +16°C° 0.1 mm 3 mps 644 mmHg 86%
    21:00 +16°C° 0.1 mm 3 mps 644 mmHg 90%
    22:00 +14°C° 0.1 mm 3 mps 644 mmHg 90%
    23:00 +14°C° 0.1 mm 3 mps 644 mmHg 89%

    16 December, Saturday

    Time Temperature Precipitation Wind Pressure Humidity
    00:00 +14°C° 0.1 mm 3 mps 643 mmHg 89%
    01:00 +14°C° 0.1 mm 3 mps 643 mmHg 90%
    02:00 +14°C° 0.1 mm 3 mps 643 mmHg 90%
    03:00 +14°C° 0.1 mm 3 mps 642 mmHg 90%
    04:00 +14°C° 0.1 mm 3 mps 643 mmHg 90%
    05:00 +14°C° 0.1 mm 3 mps 643 mmHg 89%
    06:00 +14°C° 0.1 mm 3 mps 643 mmHg 88%
    07:00 +16°C° 0.1 mm 3 mps 644 mmHg 84%
    08:00 +17°C° 0.1 mm 3 mps 644 mmHg 80%
    09:00 +18°C° 0.1 mm 3 mps 645 mmHg 76%
    10:00 +19°C° 0 mm 3 mps 645 mmHg 71%
    11:00 +21°C° 0 mm 3 mps 645 mmHg 66%
    12:00 +22°C° 0 mm 3 mps 645 mmHg 62%
    13:00 +22°C° 0 mm 3 mps 644 mmHg 61%
    14:00 +22°C° 0 mm 3 mps 644 mmHg 61%
    15:00 +22°C° 0 mm 3 mps 643 mmHg 61%
    16:00 +20°C° 0 mm 3 mps 643 mmHg 68%
    17:00 +18°C° 0 mm 2 mps 643 mmHg 75%
    18:00 +17°C° 0 mm 2 mps 642 mmHg 83%
    19:00 +16°C° 0 mm 2 mps 643 mmHg 85%
    20:00 +16°C° 0 mm 2 mps 643 mmHg 88%
    21:00 +15°C° 0 mm 2 mps 643 mmHg 90%
    22:00 +15°C° 0 mm 2 mps 643 mmHg 91%
    23:00 +15°C° 0 mm 2 mps 642 mmHg 91%
    Show more